Weather History for CWRU - February, 2013

Change the Weather History Date:

Saturday, February 2, 2013

  Actual Average Record
Temperature  
Mean Temperature 43 °F -  
Max Temperature 45 °F - - ()
Min Temperature 41 °F - - ()
Degree Days  
Heating Degree Days 22    
Moisture  
Dew Point 41 °F    
Average Humidity 91    
Maximum Humidity 94    
Minimum Humidity 85    
Precipitation  
Precipitation 0.00 in - - ()
Sea Level Pressure  
Sea Level Pressure 30.31 in    
Wind  
Wind Speed 11 mph ()    
Max Wind Speed 22 mph    
Max Gust Speed 30 mph    
T = Trace of Precipitation, MM = Missing Value Source: Averaged Metar Reports

Daily Weather History Graph

Daily Weather History Graph

Search for Another Location

Airport or City:

Trip Planner

Search our weather history database for the weather conditions in past years. The results will help you decide how hot, cold, wet, or windy it might be!

Date:

Astronomy

Feb. 02, 2013 Rise Set
Actual Time 8:03 AM PST 5:28 PM PST
Civil Twilight 7:28 AM PST 6:03 PM PST
Nautical Twilight 6:49 AM PST 6:41 PM PST
Astronomical Twilight 6:12 AM PST 7:19 PM PST
Moon 12:25 AM PST (2/2) 10:31 AM PST (2/2)
Length of Visible Light 10h 34m
Length of Day
9h 24m
Waning Gibbous, 58% of the Moon is Illuminated
Feb 2
Waning Gibbous
Feb 3
Last Quarter
Feb 9
New
Feb 17
First Quarter
Feb 25
Full

Hourly Weather History & Observations

Time (PST) Temp. Windchill Dew Point Humidity Pressure Visibility Wind Dir Wind Speed Gust Speed Precip Events Conditions
12:00 AM 43.3 °F 34.5 °F 41.2 °F 92% 30.37 in - ESE 21.9 mph 29.9 mph N/A   Unknown
1:00 AM 43.2 °F 34.5 °F 40.8 °F 91% 30.36 in - ESE 20.7 mph 26.5 mph N/A   Unknown
2:00 AM 43.0 °F 35.1 °F 39.9 °F 89% 30.37 in - ESE 17.3 mph - N/A   Unknown
3:00 AM 42.6 °F 35.9 °F 40.1 °F 91% 30.37 in - ESE 12.7 mph - N/A   Unknown
4:00 AM 42 °F - 40 °F 89% 30.36 in - ESE 11.5 mph - -  
4:00 AM 42.1 °F 35.7 °F 39.9 °F 92% 30.36 in - ESE 11.5 mph - N/A   Unknown
5:00 AM 42.6 °F 37.2 °F 39.9 °F 90% 30.35 in - SE 9.2 mph - N/A   Unknown
6:00 AM 42.3 °F 36.3 °F 40.1 °F 92% 30.33 in - ESE 10.4 mph - N/A   Unknown
7:00 AM 41.4 °F 34.7 °F 39.7 °F 94% 30.32 in - ESE 11.5 mph - N/A   Unknown
8:00 AM 41.5 °F 34.6 °F 39.9 °F 94% 30.31 in - SSE 12.7 mph - N/A   Unknown
9:00 AM 41.9 °F 38.2 °F 40.3 °F 94% 30.32 in - SE 5.8 mph - N/A   Unknown
10:00 AM 43 °F - 41 °F 91% 30.34 in - SE 4.6 mph - -  
10:00 AM 42.8 °F 40.1 °F 41.2 °F 94% 30.34 in - SE 4.6 mph - N/A   Unknown
11:00 AM 43.7 °F 42.1 °F 41.5 °F 92% 30.34 in - ESE 3.5 mph - N/A   Unknown
12:00 PM 43.5 °F 41.9 °F 40.8 °F 90% 30.33 in - ESE 3.5 mph - N/A   Unknown
1:00 PM 45.9 °F 42.9 °F 42.8 °F 89% 30.29 in - ESE 5.8 mph - N/A   Unknown
2:00 PM 44.1 °F 39.5 °F 41.5 °F 91% 30.28 in - SE 8.1 mph - N/A   Unknown
3:00 PM 43.5 °F 37.9 °F 41.2 °F 91% 30.27 in - SE 10.4 mph - N/A   Unknown
4:00 PM 44 °F - 42 °F 88% 30.26 in - ESE 13.8 mph - -  
4:00 PM 43.5 °F 36.7 °F 41.5 °F 93% 30.26 in - ESE 13.8 mph - N/A   Unknown
5:00 PM 43.5 °F 38.3 °F 41.4 °F 92% 30.28 in - SE 9.2 mph - N/A   Unknown
6:00 PM 43.7 °F 39.1 °F 41.2 °F 91% 30.27 in - SSE 8.1 mph - N/A   Unknown
7:00 PM 43.7 °F 39.1 °F 41.4 °F 91% 30.26 in - SSE 8.1 mph - N/A   Unknown
8:00 PM 43.9 °F 41.3 °F 41.2 °F 90% 30.28 in - SW 4.6 mph - N/A   Unknown
9:00 PM 43.7 °F 40.3 °F 41.0 °F 90% 30.27 in - SSE 5.8 mph - N/A   Unknown
10:00 PM 44 °F - 41 °F 85% 30.26 in - SSE 6.9 mph - -  
10:00 PM 43.7 °F 39.7 °F 41.0 °F 90% 30.26 in - SSE 6.9 mph - N/A   Unknown
11:00 PM 43.2 °F 38.4 °F 41.4 °F 93% 30.27 in - South 8.1 mph - N/A   Unknown